Regional Weather Roundup
Issued by NWS

Home | Current Version | Previous Version | Graphics & Text | Print | Product List | Glossary On
Versions: 1 2 3 4 5 6 7 8 9 10 11 12 13 14 15 16 17 18 19 20 21 22 23 24 25 26 27 28 29 30 31 32 33 34 35 36 37 38 39 40 41 42 43 44 45 46 47 48 49 50
703
ASUS43 KLSX 280257
RWRMO

WEATHER SUMMARY FOR MISSOURI
NATIONAL WEATHER SERVICE SPRINGFIELD MO
900 PM CST MON FEB 27 2017

NOTE: "FAIR" INDICATES FEW OR NO CLOUDS BELOW 12,000 FEET WITH NO
       SIGNIFICANT WEATHER AND/OR OBSTRUCTIONS TO VISIBILITY.
       CURRENT SKY AND/OR WEATHER CONDITIONS ARE NOT AVAILABLE FOR
       CHILLICOTHE AND FARMINGTON.

MOZ001>031-035>038-043-044-053-054-280400-
...NORTHERN AND WESTERN MISSOURI...

CITY           SKY/WX    TMP DP  RH WIND       PRES   REMARKS
KANSAS CTY INT CLOUDY    55  45  68 S10       29.78R
LEE`S SUMMIT   CLOUDY    58  46  64 S12       29.80S
ST JOSEPH      MOCLDY    50  38  63 SE6       29.77F
CHILLICOTHE      N/A     55  35  47 SE8       29.81F

$$
MOZ066>068-077>081-088>096-101>105-280400-
...SOUTHWEST MISSOURI...

CITY           SKY/WX    TMP DP  RH WIND       PRES   REMARKS
SPRINGFIELD    LGT RAIN  59  51  75 S18       29.90S
JOPLIN         CLOUDY    62  54  74 S20G28    29.85S

$$
MOZ032>034-039>042-045>050-055>058-069>072-280400-
...CENTRAL MISSOURI...

CITY           SKY/WX    TMP DP  RH WIND       PRES   REMARKS
COLUMBIA       NOT AVBL
JEFFERSON CITY MOCLDY    60  43  53 SE12G21   29.89R
ROLLA          CLOUDY    56  48  74 S17G29    29.93R
SEDALIA        CLOUDY    61  44  53 S18G26    29.84F
WARRENSBURG    CLOUDY    57  43  58 SE8       29.81S

$$
MOZ051-052-059>065-280400-
...EAST CENTRAL MISSOURI...

CITY           SKY/WX    TMP DP  RH WIND       PRES   REMARKS
ST LOUIS INTL  MOCLDY    59  47  64 SE15      29.97F

$$
MOZ072>076-082>087-097>100-106>115-280400-
...SOUTH CENTRAL AND SOUTHEAST MISSOURI...

CITY           SKY/WX    TMP DP  RH WIND       PRES   REMARKS
CAPE GIRARDEAU CLEAR     55  47  74 SE13      30.05F
POPLAR BLUFF   MOCLDY    55  51  86 SE8       30.04F
WEST PLAINS    CLOUDY    53  49  86 S9        30.00F

$$



USA.gov is the U.S. government's official web portal to all federal, state and local government web resources and services.